When you browse on this site, cookies collect data to enhance your experience and personalize the content and advertising you see.
Visit our Privacy Policy to learn more. By continuing to use the site, you agree to this use of cookies and data.
  • In Czech Republic
  • List of Countries
  • For 7 days
  • Water Temperature
  • Weather Map
  • Weather Widgets
  • user-avatar
    Login

    Hourly Weather Encamp

    Today, 24 February, Monday

    Time Temperature Precipitation Wind Pressure Humidity
    00:00 +6°C° 0 mm 1 mps 631 mmHg 28%
    01:00 +6°C° 0 mm 1 mps 630 mmHg 27%
    02:00 +5°C° 0 mm 1 mps 630 mmHg 27%
    03:00 +5°C° 0 mm 1 mps 629 mmHg 26%
    04:00 +5°C° 0 mm 1 mps 629 mmHg 27%
    05:00 +5°C° 0 mm 1 mps 629 mmHg 28%
    06:00 +5°C° 0 mm 1 mps 629 mmHg 29%
    07:00 +7°C° 0 mm 1 mps 629 mmHg 30%
    08:00 +9°C° 0 mm 1 mps 630 mmHg 31%
    09:00 +10°C° 0 mm 0 mps 631 mmHg 32%
    10:00 +12°C° 0 mm 0 mps 631 mmHg 30%
    11:00 +14°C° 0 mm 1 mps 631 mmHg 28%
    12:00 +16°C° 0 mm 1 mps 631 mmHg 26%
    13:00 +16°C° 0 mm 1 mps 631 mmHg 28%
    14:00 +15°C° 0 mm 1 mps 630 mmHg 30%
    15:00 +15°C° 0 mm 1 mps 629 mmHg 32%
    16:00 +12°C° 0 mm 1 mps 628 mmHg 40%
    17:00 +9°C° 0 mm 1 mps 627 mmHg 49%
    18:00 +7°C° 0 mm 1 mps 625 mmHg 57%
    19:00 +6°C° 0 mm 1 mps 625 mmHg 50%
    20:00 +6°C° 0 mm 1 mps 625 mmHg 43%
    21:00 +4°C° 0 mm 2 mps 625 mmHg 36%
    22:00 +4°C° 0 mm 2 mps 624 mmHg 36%
    23:00 +3°C° 0 mm 2 mps 624 mmHg 36%

    Tomorrow, 25 February, Tuesday

    Time Temperature Precipitation Wind Pressure Humidity
    00:00 +3°C° 0 mm 2 mps 624 mmHg 35%
    01:00 +3°C° 0 mm 2 mps 623 mmHg 35%
    02:00 +4°C° 0 mm 1 mps 623 mmHg 34%
    03:00 +4°C° 0 mm 1 mps 622 mmHg 34%
    04:00 +3°C° 0 mm 1 mps 622 mmHg 34%
    05:00 +3°C° 0 mm 1 mps 622 mmHg 35%
    06:00 +3°C° 0 mm 1 mps 622 mmHg 35%
    07:00 +4°C° 0 mm 1 mps 622 mmHg 36%
    08:00 +5°C° 0 mm 1 mps 623 mmHg 38%
    09:00 +6°C° 0 mm 1 mps 623 mmHg 39%
    10:00 +7°C° 0 mm 1 mps 623 mmHg 40%
    11:00 +7°C° 0 mm 1 mps 623 mmHg 42%
    12:00 +7°C° 0 mm 2 mps 623 mmHg 43%
    13:00 +7°C° 0 mm 2 mps 622 mmHg 48%
    14:00 +6°C° 0 mm 2 mps 622 mmHg 54%
    15:00 +6°C° 0 mm 2 mps 621 mmHg 59%
    16:00 +4°C° 0.1 mm 2 mps 621 mmHg 69%
    17:00 +3°C° 0.1 mm 2 mps 620 mmHg 79%
    18:00 +2°C° 0.1 mm 2 mps 620 mmHg 89%
    19:00 +1°C° 0.1 mm 2 mps 620 mmHg 90%
    20:00 +1°C° 0.1 mm 2 mps 620 mmHg 90%
    21:00 -1°C° 0.1 mm 2 mps 620 mmHg 91%
    22:00 -1°C° 0 mm 2 mps 620 mmHg 90%
    23:00 -2°C° 0 mm 2 mps 620 mmHg 89%

    Day after tomorrow, 26 February, Wednesday

    Time Temperature Precipitation Wind Pressure Humidity
    00:00 -2°C° 0 mm 2 mps 620 mmHg 89%
    01:00 -3°C° 0 mm 2 mps 619 mmHg 87%
    02:00 -3°C° 0 mm 2 mps 619 mmHg 85%
    03:00 -3°C° 0 mm 2 mps 618 mmHg 84%
    04:00 -3°C° 0.1 mm 2 mps 618 mmHg 83%
    05:00 -3°C° 0.1 mm 2 mps 618 mmHg 83%
    06:00 -3°C° 0.1 mm 2 mps 618 mmHg 82%
    07:00 -2°C° 0.3 mm 3 mps 619 mmHg 76%
    08:00 -1°C° 0.3 mm 3 mps 619 mmHg 69%
    09:00 0°C° 0.3 mm 3 mps 620 mmHg 62%
    10:00 0°C° 0.4 mm 3 mps 620 mmHg 59%
    11:00 -1°C° 0.4 mm 4 mps 621 mmHg 56%
    12:00 0°C° 0.4 mm 4 mps 621 mmHg 53%
    13:00 0°C° 0.2 mm 4 mps 621 mmHg 54%
    14:00 -1°C° 0.2 mm 4 mps 621 mmHg 54%
    15:00 0°C° 0.2 mm 3 mps 620 mmHg 55%
    16:00 -1°C° 0.3 mm 3 mps 620 mmHg 63%
    17:00 -4°C° 0.3 mm 3 mps 620 mmHg 70%
    18:00 -5°C° 0.3 mm 3 mps 620 mmHg 77%
    19:00 -5°C° 0.2 mm 3 mps 620 mmHg 79%
    20:00 -5°C° 0.2 mm 2 mps 621 mmHg 80%
    21:00 -5°C° 0.2 mm 2 mps 621 mmHg 82%
    22:00 -5°C° 0 mm 2 mps 621 mmHg 81%
    23:00 -6°C° 0 mm 2 mps 621 mmHg 81%

    27 February, Thursday

    Time Temperature Precipitation Wind Pressure Humidity
    00:00 -6°C° 0 mm 2 mps 621 mmHg 81%
    01:00 -4°C° 0 mm 1 mps 621 mmHg 76%
    02:00 -4°C° 0 mm 1 mps 621 mmHg 71%
    03:00 -4°C° 0 mm 1 mps 621 mmHg 67%
    04:00 -4°C° 0 mm 1 mps 621 mmHg 64%
    05:00 -4°C° 0 mm 1 mps 621 mmHg 61%
    06:00 -4°C° 0 mm 1 mps 621 mmHg 58%
    07:00 -2°C° 0 mm 1 mps 622 mmHg 54%
    08:00 0°C° 0 mm 1 mps 622 mmHg 49%
    09:00 +2°C° 0 mm 1 mps 623 mmHg 45%
    10:00 +4°C° 0 mm 1 mps 624 mmHg 45%
    11:00 +6°C° 0 mm 1 mps 624 mmHg 45%
    12:00 +7°C° 0 mm 1 mps 625 mmHg 45%
    13:00 +7°C° 0 mm 1 mps 624 mmHg 49%
    14:00 +7°C° 0 mm 1 mps 624 mmHg 53%
    15:00 +6°C° 0 mm 2 mps 623 mmHg 57%
    16:00 +5°C° 0 mm 1 mps 622 mmHg 66%
    17:00 +3°C° 0 mm 1 mps 622 mmHg 74%
    18:00 +1°C° 0 mm 1 mps 621 mmHg 82%
    19:00 +1°C° 0 mm 1 mps 621 mmHg 78%
    20:00 -1°C° 0 mm 2 mps 621 mmHg 73%
    21:00 -2°C° 0 mm 2 mps 622 mmHg 69%
    22:00 -2°C° 0 mm 2 mps 621 mmHg 62%
    23:00 -2°C° 0 mm 2 mps 621 mmHg 54%

    28 February, Friday

    Time Temperature Precipitation Wind Pressure Humidity
    00:00 -2°C° 0 mm 2 mps 621 mmHg 47%
    01:00 -2°C° 0 mm 2 mps 621 mmHg 43%
    02:00 -1°C° 0 mm 2 mps 621 mmHg 40%
    03:00 -1°C° 0 mm 2 mps 620 mmHg 36%
    04:00 +1°C° 0 mm 1 mps 621 mmHg 36%
    05:00 +1°C° 0 mm 1 mps 621 mmHg 35%
    06:00 +2°C° 0 mm 1 mps 621 mmHg 34%
    07:00 +3°C° 0 mm 1 mps 621 mmHg 35%
    08:00 +5°C° 0 mm 1 mps 622 mmHg 35%
    09:00 +7°C° 0 mm 1 mps 623 mmHg 35%
    10:00 +8°C° 0 mm 1 mps 623 mmHg 36%
    11:00 +8°C° 0 mm 2 mps 623 mmHg 36%
    12:00 +8°C° 0 mm 2 mps 623 mmHg 36%
    13:00 +8°C° 0 mm 2 mps 622 mmHg 40%
    14:00 +8°C° 0 mm 2 mps 621 mmHg 44%
    15:00 +8°C° 0 mm 2 mps 621 mmHg 47%
    16:00 +6°C° 0 mm 2 mps 620 mmHg 52%
    17:00 +4°C° 0 mm 2 mps 619 mmHg 57%
    18:00 +2°C° 0 mm 2 mps 618 mmHg 62%
    19:00 +2°C° 0 mm 2 mps 618 mmHg 62%
    20:00 +2°C° 0 mm 2 mps 618 mmHg 62%
    21:00 +2°C° 0 mm 1 mps 618 mmHg 61%
    22:00 +2°C° 0 mm 1 mps 617 mmHg 60%
    23:00 +2°C° 0 mm 1 mps 617 mmHg 59%

    29 February, Saturday

    Time Temperature Precipitation Wind Pressure Humidity
    00:00 +2°C° 0 mm 1 mps 617 mmHg 58%
    01:00 +2°C° 0 mm 1 mps 616 mmHg 56%
    02:00 +1°C° 0 mm 1 mps 616 mmHg 55%
    03:00 +1°C° 0 mm 1 mps 616 mmHg 53%
    04:00 +1°C° 0 mm 1 mps 616 mmHg 58%
    05:00 +1°C° 0 mm 1 mps 616 mmHg 62%
    06:00 0°C° 0 mm 1 mps 616 mmHg 67%
    07:00 +2°C° 0 mm 1 mps 616 mmHg 65%
    08:00 +3°C° 0 mm 1 mps 617 mmHg 63%
    09:00 +3°C° 0 mm 0 mps 618 mmHg 61%
    10:00 +5°C° 0 mm 1 mps 618 mmHg 63%
    11:00 +5°C° 0 mm 1 mps 618 mmHg 64%
    12:00 +6°C° 0 mm 1 mps 618 mmHg 66%
    13:00 +6°C° 0 mm 1 mps 618 mmHg 67%
    14:00 +5°C° 0 mm 2 mps 617 mmHg 69%
    15:00 +5°C° 0 mm 2 mps 617 mmHg 70%
    16:00 +4°C° 0.2 mm 2 mps 616 mmHg 76%
    17:00 +2°C° 0.2 mm 2 mps 616 mmHg 82%
    18:00 +2°C° 0.2 mm 1 mps 615 mmHg 88%
    19:00 +1°C° 0.6 mm 1 mps 615 mmHg 90%
    20:00 +1°C° 0.6 mm 1 mps 616 mmHg 92%
    21:00 0°C° 0.6 mm 1 mps 616 mmHg 94%
    22:00 -2°C° 0.3 mm 2 mps 616 mmHg 93%
    23:00 -3°C° 0.3 mm 2 mps 616 mmHg 93%
    Show more